Location: Bois de la Silve
(44.4667°N, 6.7833°E)
Time: 01:24:31
(UTC+00:00)

USA 238 - Visible Passes

Search period start: 24 October 2020 00:00
Search period end: 03 November 2020 00:00
Orbit: 1006 x 1206 km, 63.4° (Epoch: 15 October)

Date Brightness Start Highest point End Pass type
(mag) Time Alt. Az. Time Alt. Az. Time Alt. Az.
24 Oct 5.5 01:57:51 22° E 01:57:51 22° E 02:02:08 10° ENE visible
24 Oct 3.5 03:45:20 49° SW 03:47:17 76° NW 03:54:13 10° NE visible
25 Oct 6.2 01:15:04 11° E 01:15:04 11° E 01:15:41 10° ENE visible
25 Oct 3.7 03:02:33 74° ESE 03:02:33 74° ESE 03:09:21 10° NE visible
25 Oct 4.5 04:50:01 18° W 04:54:04 32° NW 05:00:13 10° NNE visible
26 Oct 4.8 02:19:40 39° ENE 02:19:40 39° ENE 02:24:21 10° NE visible
26 Oct 4.1 04:07:08 36° WNW 04:08:53 43° NW 04:15:28 10° NNE visible
27 Oct 5.7 01:36:42 20° ENE 01:36:42 20° ENE 01:39:06 10° NE visible
27 Oct 3.7 03:24:10 60° NW 03:24:10 60° NW 03:30:42 10° NNE visible
27 Oct 5.1 05:11:37 11° WNW 05:16:17 22° NNW 05:21:32 10° NNE visible
28 Oct 4.4 02:41:08 47° NE 02:41:08 47° NE 02:45:54 10° NE visible
28 Oct 4.7 04:28:35 23° WNW 04:30:52 27° NNW 04:36:42 10° NNE visible
29 Oct 5.4 01:58:02 27° NE 01:58:02 27° NE 02:00:59 10° NE visible
29 Oct 4.4 03:45:30 35° NW 03:45:35 36° NW 03:51:55 10° NNE visible
29 Oct 5.4 05:34:29 10° NW 05:38:48 17° N 05:43:14 10° NNE visible
30 Oct 6.1 01:14:54 14° NE 01:14:54 14° NE 01:15:54 10° NE visible
30 Oct 4.5 03:02:22 39° N 03:02:22 39° N 03:07:11 10° NNE visible
30 Oct 5.2 04:49:49 14° NW 04:53:13 19° NNW 04:58:07 10° NNE visible
31 Oct 5.2 02:19:12 29° NNE 02:19:12 29° NNE 02:22:24 10° NE visible
31 Oct 4.9 04:06:38 23° NW 04:07:43 24° NNW 04:13:12 10° NNE visible
01 Nov 5.9 01:35:58 18° NE 01:35:58 18° NE 01:37:33 10° NE visible
01 Nov 4.8 03:23:25 29° NNW 03:23:25 29° NNW 03:28:23 10° NNE visible
01 Nov 5.5 05:11:39 10° NW 05:15:48 16° N 05:20:04 10° NNE visible
02 Nov 5.2 02:40:11 27° N 02:40:11 27° N 02:43:38 10° NNE visible
02 Nov 5.3 04:27:38 15° NW 04:30:10 18° NNW 04:34:47 10° NNE visible
